Regional Weather Roundup
Issued by NWS

Home | Current Version | Previous Version | Graphics & Text | Print | Product List | Glossary On
Versions: 1 2 3 4 5 6 7 8 9 10 11 12 13 14 15 16 17 18 19 20 21 22 23 24 25 26 27 28 29 30 31 32 33 34 35 36 37 38 39 40 41 42 43 44 45 46 47 48 49 50
000
ASUS43 KMPX 031801
RWRMN
WEATHER ROUNDUP FOR MINNESOTA
NATIONAL WEATHER SERVICE TWIN CITIES/CHANHASSEN MN
100 PM CDT TUE MAY 03 2016


NOTE: "FAIR" INDICATES FEW OR NO CLOUDS BELOW 12,000 FEET WITH NO
SIGNIFICANT WEATHER AND/OR OBSTRUCTIONS TO VISIBILITY. N/A MEANS
CURRENT SKY AND/OR WEATHER CONDITIONS ARE NOT AVAILABLE.

MNZ060>063-068>070-031900-
   Twin Cities Metro

CITY           SKY/WX    TMP DP  RH WIND       PRES   REMARKS
TWIN CITIES    PTSUNNY   68  37  32 NW24G37   29.83F
6HR MIN TEMP:  49; 6HR MAX TEMP:  69;

ST PAUL        MOSUNNY   67  39  35 W21G31    29.83F
CRYSTAL        MOSUNNY   70  36  28 W20G28    29.81F
BLAINE         PTSUNNY   50  37  62 MISG        N/A
EDEN PRAIRIE   SUNNY     69  36  29 W13G28    29.82F
6HR MIN TEMP:  47; 6HR MAX TEMP:  69;

SOUTH ST PAUL  MOSUNNY   67  36  31 NW16G26   29.82F
LAKE ELMO      FAIR      68  43  40 W15G26    29.83F
$$
MNZ001>005-007-008-013>017-022>024-027-028-031900-
   Northwest Minnesota

CITY           SKY/WX    TMP DP  RH WIND       PRES   REMARKS
BEMIDJI        SUNNY     67  31  26 NW17G26   29.78S
HALLOCK        SUNNY     64  25  22 N28G36    29.88S
ROSEAU         SUNNY     64  25  22 N24G30    29.84S
WARROAD        SUNNY     61  32  33 NW21      29.83S
THIEF RVR FALL SUNNY     63  28  27 NW24G35   29.86S
CROOKSTON      SUNNY     66  30  26 N21G32    29.87S
FOSSTON        SUNNY     64  25  22 NW24G31   29.83R
DETROIT LAKES  SUNNY     68  32  26 N23       29.81F
MOORHEAD       SUNNY     72  27  18 N22G33    29.84S
PARK RAPIDS    SUNNY     71  33  24 NW22G30   29.76F
MAHNOMEN       FAIR      66  29  25 N20G31    29.81S
$$
MNZ006-009>011-018-025>026-031900-
   North Central Minnesota

CITY           SKY/WX    TMP DP  RH WIND       PRES   REMARKS
BAUDETTE       SUNNY     61  27  27 NW24G35   29.80S
FLAG ISLAND    SUNNY     55  30  38 N16G26    29.82R
INTL FALLS     SUNNY     63  29  27 N18G28    29.73S
6HR MIN TEMP:  51; 6HR MAX TEMP:  64;

WASKISH        SUNNY     63  34  34 N13G24    29.78S
BIG FORK       SUNNY     66  30  26 NW12G22   29.73S
LONGVILLE      PTSUNNY   64  36  34 NW13G23   29.76S
GRAND RAPIDS   MOSUNNY   64  30  27 NW24      29.74S
CRANE LAKE     PTSUNNY   61  30  31 NW9G20    29.71S
ORR            MOSUNNY   63  27  25 NW12G21   29.69S
COOK           MOSUNNY   63  32  31 N8G18     29.70F
WALKER         FAIR      65  36  34 NW18G25   29.77S
$$
MNZ012-019>021-037-031900-
   Northeast Minnesota

CITY           SKY/WX    TMP DP  RH WIND       PRES   REMARKS
DULUTH         PTSUNNY   62  36  37 NW16G31   29.69F
6HR MIN TEMP:  50; 6HR MAX TEMP:  67; 6HR PCP: TRACE;

ELY            MOSUNNY   61  34  36 W16G25    29.67F
HIBBING        MOSUNNY   61  34  36 N23G33    29.70F
EVELETH        SUNNY     63  30  29 NW10G23   29.71F
DULUTH HARBOR  MOSUNNY   64  37  36 NW28G35   29.68S
TWO HARBORS    CLOUDY    61  46  59 NW7       29.67S
SILVER BAY     PTSUNNY   61  46  59 CALM      29.67F
G MARAIS ARPRT PTSUNNY   57  34  41 W9G18     29.63F
$$
MNZ029>031-032-039>041-046>048-054>057-064-031900-
   West Central Minnesota

CITY           SKY/WX    TMP DP  RH WIND       PRES   REMARKS
FERGUS FALLS   MOSUNNY   72  43  35 W21G32    29.78F
WHEATON        MOSUNNY   73  45  35 W17G23    29.85F
MORRIS         CLOUDY    70  39  32 W17G24    29.83F
ALEXANDRIA     MOSUNNY   66  41  40 W20G26    29.83F
ELBOW LAKE     FAIR      69  41  35 NW16G24   29.83F
WADENA         MOSUNNY   66  41  39 W16G23    29.79F
GLENWOOD       MOSUNNY   68  43  40 W21       29.84F
APPLETON       PTSUNNY   70  41  35 NW10G23   29.86F
BENSON         PTSUNNY   70  39  32 NW17G23   29.85F
ORTONVILLE     PTSUNNY   66  41  39 W13       29.86F
MADISON        MOSUNNY   66  39  37 NW15G21   29.87F
WILLMAR        FAIR      70  43  37 W21G26    29.86F
$$
MNZ033>034-036-042>043-049>051-058-059-031900-
   Central Minnesota

CITY           SKY/WX    TMP DP  RH WIND       PRES   REMARKS
ST CLOUD       MOSUNNY   69  39  33 W22G29    29.80F
6HR MIN TEMP:  41; 6HR MAX TEMP:  69;

SAUK CENTRE    FAIR      65  43  43 W23       29.82F
PAYNESVILLE    PTSUNNY   68  38  34 W21       29.84F
AITKIN         CLOUDY    68  30  24 W9G21     29.72F
PINE RIVER     PTSUNNY   66  39  37 W14G20    29.78F
BRAINERD       CLOUDY    65  39  38 W15       29.76F
STAPLES        PTSUNNY   66  39  37 W18G26    29.78F
LONG PRAIRIE   CLOUDY    63  43  48 SW14G24   29.83F
LITTLE FALLS   CLOUDY    64  36  34 W17G24    29.79F
LITCHFIELD     MOSUNNY   68  39  34 W16G24    29.85F
BUFFALO        SUNNY     66  39  36 W14G22    29.84F
MAPLE LAKE     SUNNY     67  42  40 W15G26    29.85F
HUTCHINSON     SUNNY     68  40  34 W18G28    29.87F
$$
MNZ037-044-045-052-053-031900-
   East Central Minnesota

CITY           SKY/WX    TMP DP  RH WIND       PRES   REMARKS
PRINCETON      SUNNY     70  39  32 W20G26    29.79F
MORA           PTSUNNY   64  37  36 W18G28    29.77F
CAMBRIDGE      MOSUNNY   70  46  43 W17G26    29.77F
RUSH CITY      CLOUDY    66  38  34 W17G28    29.77F
MOOSE LAKE     CLOUDY    64  37  36 W17G25    29.70F
HINCKLEY       MOCLDY    64  39  39 W20       29.74F
CLOQUET        LGT RAIN  63  36  36 W17G29    29.70F
MCGREGOR       CLOUDY    64  37  36 W16G24    29.73F
$$
MNZ071>073-080-081-089-090-097-098-031900-
   Southwest Minnesota

CITY           SKY/WX    TMP DP  RH WIND       PRES   REMARKS
MONTEVIDEO     MOSUNNY   72  43  35 NW16      29.88F
GRANITE FALLS  MOSUNNY   70  45  41 W22       29.89F
CANBY          MOSUNNY   69  46  43 NW16G25   29.90F
MARSHALL       PTSUNNY   66  44  45 W23G29    29.89F
REDWOOD FALLS  SUNNY     68  40  35 W16       29.87F
OLIVIA         SUNNY     70  41  35 W21G28    29.85F
PIPESTONE      MOSUNNY   64  43  45 NW17G29   29.94F
WINDOM         MOSUNNY   64  43  45 W17G28    29.91F
WORTHINGTON    PTSUNNY   63  46  54 W21G29    29.94F
JACKSON        SUNNY     64  41  42 W22       29.93F
TRACY          MOSUNNY   67  44  43 NW16G23   29.90F
SLAYTON        MOSUNNY   63  42  46 W21G30    29.94F
$$
MNZ065>067-074>077-082>085-091>093-031900-
   South Central Minnesota

CITY           SKY/WX    TMP DP  RH WIND       PRES   REMARKS
MANKATO        MOSUNNY   66  37  34 W20G26    29.88F
NEW ULM        MOSUNNY   64  36  34 W20G26    29.88F
ST JAMES       SUNNY     63  36  36 SW14G21   29.90F
FAIRMONT       SUNNY     64  37  36 W14G22    29.91F
GLENCOE        MOSUNNY   68  41  37 SW10G22   29.85F
FARIBAULT      MOSUNNY   66  37  34 W16G22    29.87F
OWATONNA       MOSUNNY   68  34  28 W20G28    29.88F
WASECA         MOSUNNY   64  34  32 W17G28    29.89F
ALBERT LEA     MOSUNNY   64  36  34 W13G21    29.89F
$$
MNZ078>079-086>088-094>096-031900-
   Southeast Minnesota

CITY           SKY/WX    TMP DP  RH WIND       PRES   REMARKS
ROCHESTER      PTSUNNY   64  39  39 W25       29.88F
6HR MIN TEMP:  46; 6HR MAX TEMP:  67;

RED WING       MOSUNNY   72  30  21 W23G29    29.81F
STANTON        PTSUNNY   67  37  33 W15G26    29.83F
DODGE CENTER   MOSUNNY   64  36  34 W16       29.87F
WINONA         CLOUDY    70  36  28 W10G21    29.84F
AUSTIN         CLOUDY    64  34  32 W18G24    29.89F
PRESTON        PTSUNNY   65  37  34 W14G23    29.89F
$$
ABBREVIATIONS USED IN REMARKS
   TC - TEMPERATURES IN CELSIUS
  WCI - WIND CHILL INDEX
   HX - HEAT INDEX
  VSB - VISIBILITY
$$




USA.gov is the U.S. government's official web portal to all federal, state and local government web resources and services.